Stromnetz Berlin GmbH;;
Gesamtmenge der Netzverluste;;
2023;;
;;
Max in kW;;78.797
Arbeit in kWh;;394.903.875
;;
;;
Datum;Zeit;kW
01.01.2023;00:15;31.036
01.01.2023;00:30;30.987
01.01.2023;00:45;31.219
01.01.2023;01:00;32.765
01.01.2023;01:15;32.840
01.01.2023;01:30;32.573
01.01.2023;01:45;32.128
01.01.2023;02:00;31.839
01.01.2023;02:15;31.418
01.01.2023;02:30;30.940
01.01.2023;02:45;30.425
01.01.2023;03:00;29.938
01.01.2023;03:15;29.518
01.01.2023;03:30;28.455
01.01.2023;03:45;27.785
01.01.2023;04:00;27.613
01.01.2023;04:15;27.440
01.01.2023;04:30;27.302
01.01.2023;04:45;27.167
01.01.2023;05:00;27.029
01.01.2023;05:15;27.059
01.01.2023;05:30;27.042
01.01.2023;05:45;27.065
01.01.2023;06:00;27.042
01.01.2023;06:15;27.198
01.01.2023;06:30;27.253
01.01.2023;06:45;27.421
01.01.2023;07:00;27.503
01.01.2023;07:15;27.761
01.01.2023;07:30;27.943
01.01.2023;07:45;28.192
01.01.2023;08:00;28.401
01.01.2023;08:15;28.547
01.01.2023;08:30;28.742
01.01.2023;08:45;29.168
01.01.2023;09:00;29.728
01.01.2023;09:15;30.394
01.01.2023;09:30;31.021
01.01.2023;09:45;31.707
01.01.2023;10:00;32.492
01.01.2023;10:15;33.323
01.01.2023;10:30;34.097
01.01.2023;10:45;34.724
01.01.2023;11:00;35.339
01.01.2023;11:15;36.106
01.01.2023;11:30;36.845
01.01.2023;11:45;37.476
01.01.2023;12:00;38.051
01.01.2023;12:15;38.612
01.01.2023;12:30;39.082
01.01.2023;12:45;39.429
01.01.2023;13:00;39.598
01.01.2023;13:15;39.663
01.01.2023;13:30;39.643
01.01.2023;13:45;39.513
01.01.2023;14:00;39.488
01.01.2023;14:15;39.569
01.01.2023;14:30;39.418
01.01.2023;14:45;39.300
01.01.2023;15:00;39.253
01.01.2023;15:15;39.509
01.01.2023;15:30;39.830
01.01.2023;15:45;40.231
01.01.2023;16:00;40.752
01.01.2023;16:15;41.675
01.01.2023;16:30;42.822
01.01.2023;16:45;43.788
01.01.2023;17:00;44.342
01.01.2023;17:15;44.688
01.01.2023;17:30;45.234
01.01.2023;17:45;45.683
01.01.2023;18:00;45.726
01.01.2023;18:15;45.754
01.01.2023;18:30;45.681
01.01.2023;18:45;45.666
01.01.2023;19:00;45.431
01.01.2023;19:15;44.916
01.01.2023;19:30;44.148
01.01.2023;19:45;43.368
01.01.2023;20:00;42.786
01.01.2023;20:15;42.223
01.01.2023;20:30;41.403
01.01.2023;20:45;40.525
01.01.2023;21:00;39.723
01.01.2023;21:15;38.939
01.01.2023;21:30;38.262
01.01.2023;21:45;37.656
01.01.2023;22:00;37.225
01.01.2023;22:15;36.485
01.01.2023;22:30;35.684
01.01.2023;22:45;34.882
01.01.2023;23:00;34.128
01.01.2023;23:15;33.282
01.01.2023;23:30;33.037
01.01.2023;23:45;33.684
02.01.2023;00:00;33.262
02.01.2023;00:15;32.396
02.01.2023;00:30;31.667
02.01.2023;00:45;31.228
02.01.2023;01:00;30.562
02.01.2023;01:15;29.796
02.01.2023;01:30;28.995
02.01.2023;01:45;28.421
02.01.2023;02:00;27.952
02.01.2023;02:15;27.606
02.01.2023;02:30;27.347
02.01.2023;02:45;27.045
02.01.2023;03:00;26.308
02.01.2023;03:15;26.287
02.01.2023;03:30;26.253
02.01.2023;03:45;26.358
02.01.2023;04:00;26.555
02.01.2023;04:15;27.151
02.01.2023;04:30;27.619
02.01.2023;04:45;28.028
02.01.2023;05:00;28.462
02.01.2023;05:15;29.403
02.01.2023;05:30;30.144
02.01.2023;05:45;31.223
02.01.2023;06:00;32.443
02.01.2023;06:15;34.464
02.01.2023;06:30;35.506
02.01.2023;06:45;36.693
02.01.2023;07:00;37.856
02.01.2023;07:15;39.453
02.01.2023;07:30;40.823
02.01.2023;07:45;42.092
02.01.2023;08:00;43.477
02.01.2023;08:15;44.523
02.01.2023;08:30;45.592
02.01.2023;08:45;46.346
02.01.2023;09:00;47.290
02.01.2023;09:15;48.142
02.01.2023;09:30;49.129
02.01.2023;09:45;50.071
02.01.2023;10:00;51.052
02.01.2023;10:15;52.076
02.01.2023;10:30;52.442
02.01.2023;10:45;52.891
02.01.2023;11:00;53.280
02.01.2023;11:15;53.651
02.01.2023;11:30;54.064
02.01.2023;11:45;54.440
02.01.2023;12:00;54.884
02.01.2023;12:15;55.437
02.01.2023;12:30;55.841
02.01.2023;12:45;55.977
02.01.2023;13:00;55.730
02.01.2023;13:15;55.526
02.01.2023;13:30;55.246
02.01.2023;13:45;55.461
02.01.2023;14:00;55.321
02.01.2023;14:15;55.118
02.01.2023;14:30;54.656
02.01.2023;14:45;54.231
02.01.2023;15:00;54.063
02.01.2023;15:15;54.056
02.01.2023;15:30;54.108
02.01.2023;15:45;54.227
02.01.2023;16:00;54.594
02.01.2023;16:15;55.216
02.01.2023;16:30;56.377
02.01.2023;16:45;57.021
02.01.2023;17:00;57.511
02.01.2023;17:15;58.019
02.01.2023;17:30;58.340
02.01.2023;17:45;58.755
02.01.2023;18:00;59.140
02.01.2023;18:15;59.037
02.01.2023;18:30;58.885
02.01.2023;18:45;58.517
02.01.2023;19:00;58.129
02.01.2023;19:15;57.208
02.01.2023;19:30;56.378
02.01.2023;19:45;54.972
02.01.2023;20:00;53.938
02.01.2023;20:15;52.567
02.01.2023;20:30;50.857
02.01.2023;20:45;49.209
02.01.2023;21:00;47.909
02.01.2023;21:15;46.224
02.01.2023;21:30;44.724
02.01.2023;21:45;43.372
02.01.2023;22:00;42.258
02.01.2023;22:15;40.886
02.01.2023;22:30;39.540
02.01.2023;22:45;38.278
02.01.2023;23:00;37.202
02.01.2023;23:15;36.040
02.01.2023;23:30;35.552
02.01.2023;23:45;36.120
03.01.2023;00:00;35.580
03.01.2023;00:15;34.492
03.01.2023;00:30;33.704
03.01.2023;00:45;33.127
03.01.2023;01:00;32.435
03.01.2023;01:15;31.506
03.01.2023;01:30;30.644
03.01.2023;01:45;29.960
03.01.2023;02:00;29.463
03.01.2023;02:15;29.082
03.01.2023;02:30;28.792
03.01.2023;02:45;28.519
03.01.2023;03:00;27.827
03.01.2023;03:15;27.765
03.01.2023;03:30;27.799
03.01.2023;03:45;27.952
03.01.2023;04:00;28.200
03.01.2023;04:15;28.904
03.01.2023;04:30;29.363
03.01.2023;04:45;29.787
03.01.2023;05:00;30.216
03.01.2023;05:15;31.203
03.01.2023;05:30;32.081
03.01.2023;05:45;33.314
03.01.2023;06:00;34.862
03.01.2023;06:15;37.223
03.01.2023;06:30;39.049
03.01.2023;06:45;40.750
03.01.2023;07:00;42.540
03.01.2023;07:15;44.625
03.01.2023;07:30;46.260
03.01.2023;07:45;47.501
03.01.2023;08:00;48.670
03.01.2023;08:15;50.022
03.01.2023;08:30;51.072
03.01.2023;08:45;51.625
03.01.2023;09:00;52.343
03.01.2023;09:15;52.888
03.01.2023;09:30;53.203
03.01.2023;09:45;53.761
03.01.2023;10:00;54.166
03.01.2023;10:15;54.852
03.01.2023;10:30;55.019
03.01.2023;10:45;55.162
03.01.2023;11:00;55.142
03.01.2023;11:15;55.314
03.01.2023;11:30;55.595
03.01.2023;11:45;55.940
03.01.2023;12:00;56.429
03.01.2023;12:15;56.670
03.01.2023;12:30;56.785
03.01.2023;12:45;56.874
03.01.2023;13:00;56.737
03.01.2023;13:15;56.511
03.01.2023;13:30;56.491
03.01.2023;13:45;56.273
03.01.2023;14:00;55.870
03.01.2023;14:15;55.564
03.01.2023;14:30;55.354
03.01.2023;14:45;54.857
03.01.2023;15:00;54.745
03.01.2023;15:15;54.729
03.01.2023;15:30;54.744
03.01.2023;15:45;54.835
03.01.2023;16:00;55.317
03.01.2023;16:15;56.556
03.01.2023;16:30;58.071
03.01.2023;16:45;60.216
03.01.2023;17:00;61.061
03.01.2023;17:15;61.790
03.01.2023;17:30;62.330
03.01.2023;17:45;62.829
03.01.2023;18:00;62.987
03.01.2023;18:15;62.940
03.01.2023;18:30;62.798
03.01.2023;18:45;62.565
03.01.2023;19:00;62.022
03.01.2023;19:15;60.914
03.01.2023;19:30;59.906
03.01.2023;19:45;58.750
03.01.2023;20:00;57.488
03.01.2023;20:15;55.629
03.01.2023;20:30;53.554
03.01.2023;20:45;51.881
03.01.2023;21:00;50.393
03.01.2023;21:15;48.876
03.01.2023;21:30;47.261
03.01.2023;21:45;45.553
03.01.2023;22:00;44.534
03.01.2023;22:15;42.897
03.01.2023;22:30;41.425
03.01.2023;22:45;41.035
03.01.2023;23:00;41.399
03.01.2023;23:15;40.203
03.01.2023;23:30;39.053
03.01.2023;23:45;38.017
04.01.2023;00:00;36.864
04.01.2023;00:15;35.822
04.01.2023;00:30;34.925
04.01.2023;00:45;33.987
04.01.2023;01:00;33.104
04.01.2023;01:15;32.194
04.01.2023;01:30;31.386
04.01.2023;01:45;30.725
04.01.2023;02:00;30.323
04.01.2023;02:15;29.985
04.01.2023;02:30;29.703
04.01.2023;02:45;29.620
04.01.2023;03:00;29.471
04.01.2023;03:15;29.451
04.01.2023;03:30;29.415
04.01.2023;03:45;29.389
04.01.2023;04:00;29.468
04.01.2023;04:15;29.976
04.01.2023;04:30;30.512
04.01.2023;04:45;31.009
04.01.2023;05:00;31.707
04.01.2023;05:15;32.756
04.01.2023;05:30;33.597
04.01.2023;05:45;34.811
04.01.2023;06:00;36.500
04.01.2023;06:15;39.021
04.01.2023;06:30;40.923
04.01.2023;06:45;42.840
04.01.2023;07:00;44.676
04.01.2023;07:15;46.843
04.01.2023;07:30;48.361
04.01.2023;07:45;49.657
04.01.2023;08:00;51.295
04.01.2023;08:15;52.388
04.01.2023;08:30;53.338
04.01.2023;08:45;54.633
04.01.2023;09:00;55.722
04.01.2023;09:15;56.766
04.01.2023;09:30;57.532
04.01.2023;09:45;58.108
04.01.2023;10:00;59.262
04.01.2023;10:15;60.430
04.01.2023;10:30;60.540
04.01.2023;10:45;61.105
04.01.2023;11:00;61.603
04.01.2023;11:15;61.951
04.01.2023;11:30;62.315
04.01.2023;11:45;62.773
04.01.2023;12:00;63.438
04.01.2023;12:15;64.044
04.01.2023;12:30;64.080
04.01.2023;12:45;63.834
04.01.2023;13:00;63.582
04.01.2023;13:15;63.451
04.01.2023;13:30;62.878
04.01.2023;13:45;62.327
04.01.2023;14:00;62.208
04.01.2023;14:15;62.414
04.01.2023;14:30;62.037
04.01.2023;14:45;61.719
04.01.2023;15:00;61.338
04.01.2023;15:15;61.075
04.01.2023;15:30;60.917
04.01.2023;15:45;60.827
04.01.2023;16:00;61.044
04.01.2023;16:15;61.800
04.01.2023;16:30;62.607
04.01.2023;16:45;63.441
04.01.2023;17:00;63.948
04.01.2023;17:15;64.354
04.01.2023;17:30;64.562
04.01.2023;17:45;64.723
04.01.2023;18:00;64.975
04.01.2023;18:15;64.625
04.01.2023;18:30;64.293
04.01.2023;18:45;63.758
04.01.2023;19:00;63.148
04.01.2023;19:15;62.332
04.01.2023;19:30;61.104
04.01.2023;19:45;59.689
04.01.2023;20:00;58.436
04.01.2023;20:15;56.340
04.01.2023;20:30;54.398
04.01.2023;20:45;52.631
04.01.2023;21:00;51.064
04.01.2023;21:15;49.396
04.01.2023;21:30;47.758
04.01.2023;21:45;45.906
04.01.2023;22:00;44.744
04.01.2023;22:15;43.299
04.01.2023;22:30;42.007
04.01.2023;22:45;40.594
04.01.2023;23:00;40.809
04.01.2023;23:15;40.912
04.01.2023;23:30;39.714
04.01.2023;23:45;38.525
05.01.2023;00:00;37.643
05.01.2023;00:15;36.398
05.01.2023;00:30;35.324
05.01.2023;00:45;34.449
05.01.2023;01:00;33.563
05.01.2023;01:15;32.552
05.01.2023;01:30;31.626
05.01.2023;01:45;31.192
05.01.2023;02:00;30.667
05.01.2023;02:15;30.210
05.01.2023;02:30;29.908
05.01.2023;02:45;29.678
05.01.2023;03:00;29.582
05.01.2023;03:15;29.489
05.01.2023;03:30;29.247
05.01.2023;03:45;29.085
05.01.2023;04:00;29.296
05.01.2023;04:15;29.989
05.01.2023;04:30;30.478
05.01.2023;04:45;30.986
05.01.2023;05:00;31.524
05.01.2023;05:15;32.575
05.01.2023;05:30;33.390
05.01.2023;05:45;34.638
05.01.2023;06:00;36.258
05.01.2023;06:15;38.769
05.01.2023;06:30;40.688
05.01.2023;06:45;42.551
05.01.2023;07:00;44.338
05.01.2023;07:15;46.626
05.01.2023;07:30;48.393
05.01.2023;07:45;49.825
05.01.2023;08:00;51.241
05.01.2023;08:15;52.427
05.01.2023;08:30;53.333
05.01.2023;08:45;54.292
05.01.2023;09:00;55.081
05.01.2023;09:15;55.498
05.01.2023;09:30;56.148
05.01.2023;09:45;56.250
05.01.2023;10:00;56.349
05.01.2023;10:15;56.931
05.01.2023;10:30;56.995
05.01.2023;10:45;57.063
05.01.2023;11:00;57.333
05.01.2023;11:15;57.586
05.01.2023;11:30;57.900
05.01.2023;11:45;58.370
05.01.2023;12:00;58.444
05.01.2023;12:15;58.811
05.01.2023;12:30;59.152
05.01.2023;12:45;59.031
05.01.2023;13:00;58.767
05.01.2023;13:15;58.585
05.01.2023;13:30;58.257
05.01.2023;13:45;57.626
05.01.2023;14:00;57.306
05.01.2023;14:15;57.098
05.01.2023;14:30;56.694
05.01.2023;14:45;56.395
05.01.2023;15:00;56.754
05.01.2023;15:15;56.985
05.01.2023;15:30;56.948
05.01.2023;15:45;56.979
05.01.2023;16:00;57.220
05.01.2023;16:15;58.439
05.01.2023;16:30;59.884
05.01.2023;16:45;61.255
05.01.2023;17:00;61.848
05.01.2023;17:15;62.499
05.01.2023;17:30;62.798
05.01.2023;17:45;63.033
05.01.2023;18:00;63.436
05.01.2023;18:15;63.045
05.01.2023;18:30;62.516
05.01.2023;18:45;62.252
05.01.2023;19:00;61.822
05.01.2023;19:15;60.796
05.01.2023;19:30;59.884
05.01.2023;19:45;58.708
05.01.2023;20:00;57.276
05.01.2023;20:15;55.611
05.01.2023;20:30;53.737
05.01.2023;20:45;51.696
05.01.2023;21:00;50.202
05.01.2023;21:15;48.525
05.01.2023;21:30;47.013
05.01.2023;21:45;45.674
05.01.2023;22:00;44.494
05.01.2023;22:15;42.796
05.01.2023;22:30;41.456
05.01.2023;22:45;41.107
05.01.2023;23:00;41.435
05.01.2023;23:15;40.548
05.01.2023;23:30;39.449
05.01.2023;23:45;38.335
06.01.2023;00:00;37.271
06.01.2023;00:15;36.332
06.01.2023;00:30;35.382
06.01.2023;00:45;34.528
06.01.2023;01:00;33.675
06.01.2023;01:15;32.676
06.01.2023;01:30;31.759
06.01.2023;01:45;31.034
06.01.2023;02:00;30.529
06.01.2023;02:15;30.107
06.01.2023;02:30;29.776
06.01.2023;02:45;29.662
06.01.2023;03:00;29.567
06.01.2023;03:15;29.530
06.01.2023;03:30;29.423
06.01.2023;03:45;29.381
06.01.2023;04:00;29.443
06.01.2023;04:15;29.984
06.01.2023;04:30;30.479
06.01.2023;04:45;30.978
06.01.2023;05:00;31.615
06.01.2023;05:15;32.662
06.01.2023;05:30;33.451
06.01.2023;05:45;34.693
06.01.2023;06:00;36.311
06.01.2023;06:15;38.800
06.01.2023;06:30;40.513
06.01.2023;06:45;42.492
06.01.2023;07:00;44.186
06.01.2023;07:15;46.150
06.01.2023;07:30;47.950
06.01.2023;07:45;49.279
06.01.2023;08:00;50.818
06.01.2023;08:15;52.219
06.01.2023;08:30;53.309
06.01.2023;08:45;54.263
06.01.2023;09:00;55.331
06.01.2023;09:15;56.624
06.01.2023;09:30;57.242
06.01.2023;09:45;57.693
06.01.2023;10:00;58.319
06.01.2023;10:15;59.069
06.01.2023;10:30;59.387
06.01.2023;10:45;59.471
06.01.2023;11:00;59.539
06.01.2023;11:15;59.807
06.01.2023;11:30;59.828
06.01.2023;11:45;59.722
06.01.2023;12:00;59.825
06.01.2023;12:15;60.265
06.01.2023;12:30;60.712
06.01.2023;12:45;60.726
06.01.2023;13:00;60.338
06.01.2023;13:15;59.852
06.01.2023;13:30;59.312
06.01.2023;13:45;58.665
06.01.2023;14:00;58.371
06.01.2023;14:15;57.850
06.01.2023;14:30;57.494
06.01.2023;14:45;57.170
06.01.2023;15:00;57.128
06.01.2023;15:15;57.076
06.01.2023;15:30;57.206
06.01.2023;15:45;57.281
06.01.2023;16:00;57.550
06.01.2023;16:15;57.840
06.01.2023;16:30;58.619
06.01.2023;16:45;59.791
06.01.2023;17:00;60.465
06.01.2023;17:15;60.654
06.01.2023;17:30;60.811
06.01.2023;17:45;61.348
06.01.2023;18:00;61.207
06.01.2023;18:15;60.629
06.01.2023;18:30;60.104
06.01.2023;18:45;59.814
06.01.2023;19:00;59.276
06.01.2023;19:15;58.233
06.01.2023;19:30;56.781
06.01.2023;19:45;55.843
06.01.2023;20:00;54.714
06.01.2023;20:15;52.715
06.01.2023;20:30;50.982
06.01.2023;20:45;49.485
06.01.2023;21:00;48.139
06.01.2023;21:15;46.634
06.01.2023;21:30;45.297
06.01.2023;21:45;44.033
06.01.2023;22:00;42.987
06.01.2023;22:15;41.895
06.01.2023;22:30;40.641
06.01.2023;22:45;39.543
06.01.2023;23:00;38.755
06.01.2023;23:15;37.595
06.01.2023;23:30;36.625
06.01.2023;23:45;35.672
07.01.2023;00:00;36.168
07.01.2023;00:15;36.250
07.01.2023;00:30;35.343
07.01.2023;00:45;34.517
07.01.2023;01:00;33.728
07.01.2023;01:15;32.992
07.01.2023;01:30;32.229
07.01.2023;01:45;31.785
07.01.2023;02:00;31.162
07.01.2023;02:15;30.701
07.01.2023;02:30;30.250
07.01.2023;02:45;29.898
07.01.2023;03:00;29.553
07.01.2023;03:15;29.333
07.01.2023;03:30;29.077
07.01.2023;03:45;28.882
07.01.2023;04:00;28.711
07.01.2023;04:15;28.664
07.01.2023;04:30;28.419
07.01.2023;04:45;28.261
07.01.2023;05:00;28.386
07.01.2023;05:15;28.834
07.01.2023;05:30;29.109
07.01.2023;05:45;29.524
07.01.2023;06:00;30.063
07.01.2023;06:15;30.752
07.01.2023;06:30;31.120
07.01.2023;06:45;31.539
07.01.2023;07:00;31.995
07.01.2023;07:15;32.771
07.01.2023;07:30;33.484
07.01.2023;07:45;34.255
07.01.2023;08:00;35.192
07.01.2023;08:15;36.083
07.01.2023;08:30;37.236
07.01.2023;08:45;38.338
07.01.2023;09:00;39.606
07.01.2023;09:15;41.110
07.01.2023;09:30;42.301
07.01.2023;09:45;43.400
07.01.2023;10:00;44.639
07.01.2023;10:15;45.975
07.01.2023;10:30;46.918
07.01.2023;10:45;47.593
07.01.2023;11:00;48.157
07.01.2023;11:15;48.748
07.01.2023;11:30;49.146
07.01.2023;11:45;49.509
07.01.2023;12:00;49.540
07.01.2023;12:15;49.712
07.01.2023;12:30;49.863
07.01.2023;12:45;49.743
07.01.2023;13:00;49.506
07.01.2023;13:15;49.223
07.01.2023;13:30;48.842
07.01.2023;13:45;48.675
07.01.2023;14:00;48.397
07.01.2023;14:15;48.141
07.01.2023;14:30;47.841
07.01.2023;14:45;47.628
07.01.2023;15:00;47.425
07.01.2023;15:15;47.251
07.01.2023;15:30;47.086
07.01.2023;15:45;47.116
07.01.2023;16:00;47.490
07.01.2023;16:15;48.183
07.01.2023;16:30;49.242
07.01.2023;16:45;50.705
07.01.2023;17:00;51.671
07.01.2023;17:15;52.270
07.01.2023;17:30;52.618
07.01.2023;17:45;53.001
07.01.2023;18:00;53.108
07.01.2023;18:15;53.175
07.01.2023;18:30;53.167
07.01.2023;18:45;52.927
07.01.2023;19:00;52.409
07.01.2023;19:15;51.644
07.01.2023;19:30;50.781
07.01.2023;19:45;50.020
07.01.2023;20:00;49.315
07.01.2023;20:15;48.257
07.01.2023;20:30;46.806
07.01.2023;20:45;45.548
07.01.2023;21:00;44.374
07.01.2023;21:15;43.470
07.01.2023;21:30;42.351
07.01.2023;21:45;41.437
07.01.2023;22:00;40.659
07.01.2023;22:15;39.772
07.01.2023;22:30;38.801
07.01.2023;22:45;37.718
07.01.2023;23:00;36.914
07.01.2023;23:15;36.076
07.01.2023;23:30;35.182
07.01.2023;23:45;35.363
08.01.2023;00:00;35.791
08.01.2023;00:15;35.084
08.01.2023;00:30;34.341
08.01.2023;00:45;33.620
08.01.2023;01:00;32.831
08.01.2023;01:15;31.983
08.01.2023;01:30;31.247
08.01.2023;01:45;30.586
08.01.2023;02:00;30.037
08.01.2023;02:15;29.505
08.01.2023;02:30;29.105
08.01.2023;02:45;28.880
08.01.2023;03:00;28.583
08.01.2023;03:15;28.397
08.01.2023;03:30;28.219
08.01.2023;03:45;28.079
08.01.2023;04:00;27.934
08.01.2023;04:15;27.801
08.01.2023;04:30;27.789
08.01.2023;04:45;27.642
08.01.2023;05:00;27.527
08.01.2023;05:15;27.578
08.01.2023;05:30;27.679
08.01.2023;05:45;27.800
08.01.2023;06:00;27.960
08.01.2023;06:15;28.389
08.01.2023;06:30;28.636
08.01.2023;06:45;28.961
08.01.2023;07:00;29.186
08.01.2023;07:15;29.759
08.01.2023;07:30;30.323
08.01.2023;07:45;30.826
08.01.2023;08:00;31.506
08.01.2023;08:15;32.056
08.01.2023;08:30;33.012
08.01.2023;08:45;34.045
08.01.2023;09:00;35.119
08.01.2023;09:15;36.472
08.01.2023;09:30;37.698
08.01.2023;09:45;38.779
08.01.2023;10:00;39.872
08.01.2023;10:15;41.006
08.01.2023;10:30;41.843
08.01.2023;10:45;42.739
08.01.2023;11:00;43.636
08.01.2023;11:15;44.652
08.01.2023;11:30;45.509
08.01.2023;11:45;46.401
08.01.2023;12:00;46.719
08.01.2023;12:15;47.222
08.01.2023;12:30;47.596
08.01.2023;12:45;47.652
08.01.2023;13:00;47.685
08.01.2023;13:15;47.364
08.01.2023;13:30;46.750
08.01.2023;13:45;46.517
08.01.2023;14:00;46.393
08.01.2023;14:15;46.297
08.01.2023;14:30;46.205
08.01.2023;14:45;46.088
08.01.2023;15:00;46.074
08.01.2023;15:15;46.318
08.01.2023;15:30;46.257
08.01.2023;15:45;46.458
08.01.2023;16:00;46.855
08.01.2023;16:15;47.470
08.01.2023;16:30;48.025
08.01.2023;16:45;48.852
08.01.2023;17:00;49.493
08.01.2023;17:15;50.136
08.01.2023;17:30;50.594
08.01.2023;17:45;51.006
08.01.2023;18:00;51.338
08.01.2023;18:15;51.513
08.01.2023;18:30;51.367
08.01.2023;18:45;51.130
08.01.2023;19:00;50.750
08.01.2023;19:15;50.145
08.01.2023;19:30;49.286
08.01.2023;19:45;48.307
08.01.2023;20:00;47.559
08.01.2023;20:15;46.744
08.01.2023;20:30;45.659
08.01.2023;20:45;44.477
08.01.2023;21:00;43.507
08.01.2023;21:15;42.535
08.01.2023;21:30;41.664
08.01.2023;21:45;40.919
08.01.2023;22:00;40.521
08.01.2023;22:15;39.494
08.01.2023;22:30;38.622
08.01.2023;22:45;38.695
08.01.2023;23:00;39.128
08.01.2023;23:15;38.158
08.01.2023;23:30;37.174
08.01.2023;23:45;36.166
09.01.2023;00:00;35.337
09.01.2023;00:15;34.511
09.01.2023;00:30;33.765
09.01.2023;00:45;33.034
09.01.2023;01:00;32.142
09.01.2023;01:15;31.375
09.01.2023;01:30;30.535
09.01.2023;01:45;29.927
09.01.2023;02:00;29.479
09.01.2023;02:15;29.157
09.01.2023;02:30;28.890
09.01.2023;02:45;28.889
09.01.2023;03:00;28.748
09.01.2023;03:15;28.740
09.01.2023;03:30;28.675
09.01.2023;03:45;28.685
09.01.2023;04:00;28.820
09.01.2023;04:15;29.494
09.01.2023;04:30;29.922
09.01.2023;04:45;30.430
09.01.2023;05:00;30.964
09.01.2023;05:15;32.159
09.01.2023;05:30;32.993
09.01.2023;05:45;34.438
09.01.2023;06:00;36.089
09.01.2023;06:15;38.899
09.01.2023;06:30;40.986
09.01.2023;06:45;43.154
09.01.2023;07:00;45.123
09.01.2023;07:15;47.415
09.01.2023;07:30;49.321
09.01.2023;07:45;50.748
09.01.2023;08:00;52.339
09.01.2023;08:15;53.713
09.01.2023;08:30;54.736
09.01.2023;08:45;55.618
09.01.2023;09:00;56.643
09.01.2023;09:15;57.371
09.01.2023;09:30;58.063
09.01.2023;09:45;58.294
09.01.2023;10:00;58.977
09.01.2023;10:15;59.768
09.01.2023;10:30;60.064
09.01.2023;10:45;60.378
09.01.2023;11:00;60.484
09.01.2023;11:15;60.253
09.01.2023;11:30;60.179
09.01.2023;11:45;60.353
09.01.2023;12:00;60.816
09.01.2023;12:15;61.270
09.01.2023;12:30;61.537
09.01.2023;12:45;61.704
09.01.2023;13:00;61.120
09.01.2023;13:15;60.471
09.01.2023;13:30;59.601
09.01.2023;13:45;58.750
09.01.2023;14:00;58.337
09.01.2023;14:15;57.729
09.01.2023;14:30;57.097
09.01.2023;14:45;56.408
09.01.2023;15:00;56.276
09.01.2023;15:15;56.915
09.01.2023;15:30;57.508
09.01.2023;15:45;57.794
09.01.2023;16:00;57.950
09.01.2023;16:15;58.410
09.01.2023;16:30;59.259
09.01.2023;16:45;60.877
09.01.2023;17:00;61.924
09.01.2023;17:15;62.509
09.01.2023;17:30;62.828
09.01.2023;17:45;63.428
09.01.2023;18:00;63.729
09.01.2023;18:15;63.493
09.01.2023;18:30;63.123
09.01.2023;18:45;62.989
09.01.2023;19:00;62.590
09.01.2023;19:15;61.909
09.01.2023;19:30;61.041
09.01.2023;19:45;59.934
09.01.2023;20:00;58.640
09.01.2023;20:15;56.580
09.01.2023;20:30;54.412
09.01.2023;20:45;52.296
09.01.2023;21:00;50.954
09.01.2023;21:15;49.477
09.01.2023;21:30;47.900
09.01.2023;21:45;46.379
09.01.2023;22:00;45.026
09.01.2023;22:15;43.272
09.01.2023;22:30;41.909
09.01.2023;22:45;41.606
09.01.2023;23:00;42.016
09.01.2023;23:15;40.710
09.01.2023;23:30;39.457
09.01.2023;23:45;38.269
10.01.2023;00:00;37.122
10.01.2023;00:15;35.961
10.01.2023;00:30;35.089
10.01.2023;00:45;34.202
10.01.2023;01:00;33.262
10.01.2023;01:15;32.357
10.01.2023;01:30;31.459
10.01.2023;01:45;30.743
10.01.2023;02:00;30.208
10.01.2023;02:15;29.836
10.01.2023;02:30;29.629
10.01.2023;02:45;29.588
10.01.2023;03:00;29.506
10.01.2023;03:15;29.455
10.01.2023;03:30;29.351
10.01.2023;03:45;29.409
10.01.2023;04:00;29.480
10.01.2023;04:15;30.051
10.01.2023;04:30;30.592
10.01.2023;04:45;31.166
10.01.2023;05:00;31.657
10.01.2023;05:15;32.687
10.01.2023;05:30;33.628
10.01.2023;05:45;34.918
10.01.2023;06:00;36.564
10.01.2023;06:15;39.356
10.01.2023;06:30;41.366
10.01.2023;06:45;43.374
10.01.2023;07:00;45.235
10.01.2023;07:15;47.514
10.01.2023;07:30;49.242
10.01.2023;07:45;51.159
10.01.2023;08:00;52.723
10.01.2023;08:15;53.944
10.01.2023;08:30;55.007
10.01.2023;08:45;55.819
10.01.2023;09:00;56.558
10.01.2023;09:15;57.400
10.01.2023;09:30;57.808
10.01.2023;09:45;57.936
10.01.2023;10:00;58.224
10.01.2023;10:15;58.492
10.01.2023;10:30;58.388
10.01.2023;10:45;58.771
10.01.2023;11:00;59.069
10.01.2023;11:15;59.793
10.01.2023;11:30;59.528
10.01.2023;11:45;59.616
10.01.2023;12:00;59.655
10.01.2023;12:15;59.865
10.01.2023;12:30;59.644
10.01.2023;12:45;59.530
10.01.2023;13:00;59.228
10.01.2023;13:15;59.033
10.01.2023;13:30;58.478
10.01.2023;13:45;57.976
10.01.2023;14:00;57.858
10.01.2023;14:15;57.772
10.01.2023;14:30;57.971
10.01.2023;14:45;57.760
10.01.2023;15:00;57.773
10.01.2023;15:15;57.672
10.01.2023;15:30;56.945
10.01.2023;15:45;56.944
10.01.2023;16:00;57.312
10.01.2023;16:15;58.578
10.01.2023;16:30;59.819
10.01.2023;16:45;61.267
10.01.2023;17:00;62.371
10.01.2023;17:15;63.256
10.01.2023;17:30;63.698
10.01.2023;17:45;64.233
10.01.2023;18:00;64.593
10.01.2023;18:15;64.547
10.01.2023;18:30;64.138
10.01.2023;18:45;63.889
10.01.2023;19:00;63.622
10.01.2023;19:15;62.512
10.01.2023;19:30;61.204
10.01.2023;19:45;59.897
10.01.2023;20:00;59.003
10.01.2023;20:15;57.456
10.01.2023;20:30;55.277
10.01.2023;20:45;53.379
10.01.2023;21:00;52.161
10.01.2023;21:15;50.512
10.01.2023;21:30;48.744
10.01.2023;21:45;47.185
10.01.2023;22:00;46.065
10.01.2023;22:15;44.299
10.01.2023;22:30;42.762